DW5752 Edgartown MA US current weather conditions

sailwx.info

Wind from 183 at 7 knots gusting 19

Air temperature 11.1° C
Dewpoint -43.2° C

Last reported at 2019-Dec-09 23:00 UTC.
Time now 2019-Dec-10 00:13 UTC

Location: N 41°24' W 070°30'.
View on Google Maps.

See reports from other nearby stations

  
Tides and Currents Weather Stations Pressure Air Temp Water Temp Dewpoint Dewpoint Depression Visibility Wind Speed Wind Dir Waves Ship Positions
date/time (UTC)wind fromknots sea level pressurealtimeterstation pressurevisibilityair tempwater tempwave heightnotes
2019-Dec-09 23:00 183 7 gusting 19 11.1
2019-Dec-09 22:46 192 4 gusting 19 11.7
2019-Dec-09 22:32 225 6 gusting 13 11.1
2019-Dec-09 22:17 176 6 gusting 13 11.1
2019-Dec-09 22:01 150 6 gusting 16 11.1
2019-Dec-09 21:46 174 5 gusting 17 11.1
2019-Dec-09 21:33 154 6 gusting 14 11.1
2019-Dec-09 21:16 147 5 gusting 15 11.1
2019-Dec-09 21:01 150 5 gusting 15 10.6
2019-Dec-09 20:46 226 7 gusting 16 11.1
2019-Dec-09 20:30 197 6 gusting 14 10.6
2019-Dec-09 20:15 178 6 gusting 19 11.1
2019-Dec-09 20:00 124 6 gusting 15 10.6
2019-Dec-09 19:45 152 6 gusting 15 10.6
2019-Dec-09 19:30 098 6 gusting 16 10.6
2019-Dec-09 19:16 147 6 gusting 13 10.6
2019-Dec-09 19:01 135 7 gusting 13 11.1
2019-Dec-09 18:46 083 4 gusting 13 11.1
2019-Dec-09 18:31 116 7 gusting 15 10.6
2019-Dec-09 18:16 120 6 gusting 11 10.6
2019-Dec-09 18:01 123 4 gusting 13 10.6
2019-Dec-09 17:46 162 5 gusting 14 10.6
2019-Dec-09 17:31 156 5 gusting 18 11.1
2019-Dec-09 17:15 141 5 gusting 12 10.6
2019-Dec-09 17:00 106 3 gusting 13 11.1
2019-Dec-09 16:45 215 4 gusting 11 10.6
2019-Dec-09 16:30 133 5 gusting 11 10.6
2019-Dec-09 16:15 170 4 gusting 16 11.1
2019-Dec-09 16:00 127 6 gusting 18 11.1
2019-Dec-09 15:47 140 6 gusting 15 11.1
2019-Dec-09 15:31 168 6 gusting 13 11.1
2019-Dec-09 15:16 181 6 gusting 13 10.6
2019-Dec-09 15:01 082 6 gusting 13 10.6
2019-Dec-09 14:46 145 4 gusting 13 10.6
2019-Dec-09 14:31 139 6 gusting 13 10.6
2019-Dec-09 14:16 189 3 gusting 8 10.6
2019-Dec-09 14:01 243 2 gusting 10 10.6
2019-Dec-09 13:45 188 2 gusting 6 10.6
2019-Dec-09 13:31 134 0 gusting 4 10.6
2019-Dec-09 13:15 183 0 gusting 6 10.0
2019-Dec-09 13:00 197 1 gusting 6 10.0
2019-Dec-09 12:45 184 10.0
2019-Dec-09 12:30 223 1 gusting 4 10.0
2019-Dec-09 12:17 154 10.0
2019-Dec-09 12:02 226 0 gusting 3 10.0
2019-Dec-09 11:46 211 0 gusting 5 10.0
2019-Dec-09 11:32 220 0 gusting 8 10.0
2019-Dec-09 11:17 222 1 gusting 7 10.0
2019-Dec-09 11:00 141 2 gusting 5 10.0
2019-Dec-09 10:46 155 3 gusting 9 10.0
2019-Dec-09 10:31 168 2 gusting 8 10.0
2019-Dec-09 10:15 154 4 gusting 10 9.4
2019-Dec-09 10:00 154 2 gusting 7 9.4
2019-Dec-09 09:45 147 4 gusting 8 9.4
2019-Dec-09 09:30 194 3 gusting 7 9.4
2019-Dec-09 09:15 193 1 gusting 7 8.9
2019-Dec-09 09:02 184 1 gusting 6 8.9
2019-Dec-09 08:46 124 1 gusting 9 8.9
2019-Dec-09 08:31 140 1 gusting 7 8.3
2019-Dec-09 08:17 149 3 gusting 8 8.3
2019-Dec-09 08:01 166 2 gusting 8 8.3
2019-Dec-09 07:46 193 1 gusting 9 8.3
2019-Dec-09 07:31 141 2 gusting 6 8.3
2019-Dec-09 07:16 163 3 gusting 7 7.8
2019-Dec-09 07:02 212 1 gusting 6 7.8
2019-Dec-09 06:45 216 2 gusting 7 7.8
2019-Dec-09 06:30 209 1 gusting 6 7.2
2019-Dec-09 06:15 234 2 gusting 6 7.2
2019-Dec-09 06:00 196 2 gusting 7 7.2
2019-Dec-09 05:45 128 3 gusting 9 7.2
2019-Dec-09 05:32 210 3 gusting 12 7.2
2019-Dec-09 05:17 156 2 gusting 12 6.7
2019-Dec-09 05:01 185 2 gusting 7 6.7
2019-Dec-09 04:47 189 2 gusting 9 6.7
2019-Dec-09 04:31 188 2 gusting 12 6.7
2019-Dec-09 04:16 168 1 gusting 13 6.7
2019-Dec-09 04:01 211 3 gusting 9 6.7
2019-Dec-09 03:46 215 4 gusting 12 6.7
2019-Dec-09 03:31 201 5 gusting 12 6.7
2019-Dec-09 03:15 240 4 gusting 10 6.1
2019-Dec-09 03:00 212 5 gusting 12 6.1
2019-Dec-09 02:45 159 4 gusting 13 6.1
2019-Dec-09 02:30 151 4 gusting 10 5.6
2019-Dec-09 02:15 225 4 gusting 15 5.6
2019-Dec-09 02:02 261 3 gusting 8 5.6
2019-Dec-09 01:46 183 5 gusting 11 5.6
2019-Dec-09 01:31 158 3 gusting 13 5.6
2019-Dec-09 01:17 185 4 gusting 8 5.0
2019-Dec-09 01:01 224 4 gusting 9 5.0
2019-Dec-09 00:46 179 4 gusting 10 5.0
2019-Dec-09 00:31 162 4 gusting 9 4.4
2019-Dec-09 00:16 134 3 gusting 13 4.4
2019-Dec-09 00:01 224 4 gusting 12 4.4
2019-Dec-08 23:45 141 2 gusting 9 3.9
2019-Dec-08 23:30 211 4 gusting 8 3.9
2019-Dec-08 23:15 224 3 gusting 8 3.9
2019-Dec-08 23:00 216 2 gusting 6 3.3
2019-Dec-08 22:45 235 1 gusting 9 3.3
2019-Dec-08 22:31 234 3 gusting 13 3.3
2019-Dec-08 22:16 171 2 gusting 7 2.8
2019-Dec-08 22:01 240 1 gusting 9 2.8
2019-Dec-08 21:47 235 1 gusting 9 2.8
2019-Dec-08 21:31 216 2 gusting 7 2.2
2019-Dec-08 21:15 163 1 gusting 6 2.2
2019-Dec-08 21:00 223 2 gusting 12 2.2
2019-Dec-08 20:45 199 2 gusting 6 2.8
2019-Dec-08 20:30 224 3 gusting 9 2.8
2019-Dec-08 20:15 195 0 gusting 8 2.8
2019-Dec-08 20:00 181 0 gusting 7 2.8
2019-Dec-08 19:45 191 2 gusting 6 2.8
2019-Dec-08 19:30 159 1 gusting 6 2.8
2019-Dec-08 19:17 245 1 gusting 6 2.8
2019-Dec-08 19:01 210 0 gusting 6 3.3
2019-Dec-08 18:47 193 2 gusting 6 3.9
2019-Dec-08 18:31 225 2 gusting 6 3.9
2019-Dec-08 18:16 258 1 gusting 7 3.9
2019-Dec-08 18:01 144 1 gusting 7 3.9
2019-Dec-08 17:46 154 2 gusting 4 3.3
2019-Dec-08 17:31 266 0 gusting 7 3.3
2019-Dec-08 17:15 210 0 gusting 7 3.3
2019-Dec-08 17:00 272 1 gusting 5 2.8
2019-Dec-08 16:45 224 1 gusting 6 1.7
2019-Dec-08 16:30 199 2 gusting 5 1.7
2019-Dec-08 16:15 205 1 gusting 4 1.1
2019-Dec-08 16:00 170 0 gusting 4 2.2
2019-Dec-08 15:47 112 1 gusting 6 1.7
2019-Dec-08 15:33 237 0 gusting 5 1.1
2019-Dec-08 15:16 160 1 gusting 4 1.1
2019-Dec-08 15:01 226 0 gusting 4 0.6
2019-Dec-08 14:47 191 0 gusting 3 -0.6
2019-Dec-08 14:30 210 0 gusting 2 -1.1
2019-Dec-08 14:16 321 -1.7
2019-Dec-08 14:00 318 0 gusting 2 -1.7
2019-Dec-08 13:45 345 0 gusting 2 -2.2
2019-Dec-08 13:30 293 -3.3
2019-Dec-08 13:15 280 -4.4
2019-Dec-08 13:01 324 -5.6
2019-Dec-08 12:45 324 -6.1
2019-Dec-08 12:30 324 -6.1
2019-Dec-08 12:15 324 -6.1
2019-Dec-08 12:01 324 -5.6
2019-Dec-08 11:47 324 -5.0
2019-Dec-08 11:31 324 -4.4
2019-Dec-08 11:17 307 0 gusting 2 -3.9
2019-Dec-08 11:02 062 -3.9
2019-Dec-08 10:46 324 0 gusting 3 -3.9
2019-Dec-08 10:31 305 0 gusting 3 -3.3
2019-Dec-08 10:16 312 0 gusting 5 -3.3
2019-Dec-08 10:02 017 1 gusting 3 -3.3
2019-Dec-08 09:47 312 0 gusting 3 -3.3
2019-Dec-08 09:30 309 1 gusting 5 -2.8
2019-Dec-08 09:15 338 1 gusting 4 -2.8
2019-Dec-08 09:01 333 0 gusting 6 -2.8
2019-Dec-08 08:45 016 2 gusting 4 -2.8
2019-Dec-08 08:31 354 2 gusting 8 -2.8
2019-Dec-08 08:16 314 0 gusting 5 -2.8
2019-Dec-08 08:01 043 1 gusting 6 -2.8
2019-Dec-08 07:46 354 1 gusting 7 -2.2
2019-Dec-08 07:31 339 3 gusting 7 -2.2
2019-Dec-08 07:15 354 2 gusting 7 -2.2
2019-Dec-08 07:02 014 1 gusting 9 -2.2
2019-Dec-08 06:45 328 2 gusting 9 -2.2
2019-Dec-08 06:30 004 1 gusting 7 -2.2
2019-Dec-08 06:15 316 1 gusting 10 -2.2
2019-Dec-08 06:00 354 3 gusting 8 -1.7
2019-Dec-08 05:45 323 0 gusting 9 -1.7
2019-Dec-08 05:30 335 4 gusting 13 -1.7
2019-Dec-08 05:15 266 3 gusting 10 -1.7
2019-Dec-08 05:00 324 2 gusting 13 -1.7
2019-Dec-08 04:47 338 4 gusting 10 -1.7
2019-Dec-08 04:31 354 3 gusting 9 -1.7
2019-Dec-08 04:17 302 3 gusting 10 -1.7
2019-Dec-08 04:02 288 5 gusting 11 -1.7
2019-Dec-08 03:48 341 3 gusting 10 -1.7
2019-Dec-08 03:31 359 3 gusting 10 -1.7
2019-Dec-08 03:16 310 4 gusting 11 -1.7
2019-Dec-08 03:01 354 3 gusting 9 -1.1
2019-Dec-08 02:46 025 3 gusting 9 -1.1
2019-Dec-08 02:31 354 2 gusting 9 -1.1
2019-Dec-08 02:16 277 4 gusting 12 -1.1
2019-Dec-08 02:02 335 4 gusting 13 -1.1
2019-Dec-08 01:46 324 3 gusting 11 -1.1
2019-Dec-08 01:32 311 2 gusting 10 -0.6
2019-Dec-08 01:16 312 2 gusting 12 -0.6
2019-Dec-08 01:01 287 4 gusting 12 -0.6
2019-Dec-08 00:46 326 2 gusting 10 -0.6
2019-Dec-08 00:31 312 3 gusting 11 -0.6
2019-Dec-08 00:16 345 5 gusting 10 -0.6
2019-Dec-08 00:01 300 2 gusting 9 -0.6